SWA616 KMCO-MYNN

Flight info

Callsign SWA616
Flight time N/A
Altitude 23000
Route DDANY3 VALKA DCT EBAYY DCT ZFP BR63V ZQA
Aircraft B738/M-SADE2E3GIJ4RWZ/LB1D1

Departure

Time 2026-05-06 23:42
Airport Orlando International Airport (KMCO)

Arrival

Time N/A
Airport Lynden Pindling International Airport (MYNN)
Time Latitude Longitude Altitude Speed Heading
2026-05-06 23:15 28.43511 -81.30370 100 ft 0 kts 75°
2026-05-06 23:31 28.43510 -81.30375 100 ft 3 kts 75°
2026-05-06 23:31 28.43503 -81.30402 100 ft 2 kts 74°
2026-05-06 23:31 28.43495 -81.30423 98 ft 4 kts 21°
2026-05-06 23:31 28.43476 -81.30418 98 ft 4 kts 324°
2026-05-06 23:32 28.43463 -81.30408 98 ft 0 kts 324°
2026-05-06 23:35 28.43468 -81.30411 99 ft 2 kts 324°
2026-05-06 23:36 28.43491 -81.30431 98 ft 6 kts 324°
2026-05-06 23:36 28.43538 -81.30456 100 ft 9 kts 356°
2026-05-06 23:36 28.43604 -81.30423 100 ft 12 kts 38°
2026-05-06 23:36 28.43662 -81.30349 100 ft 13 kts 52°
2026-05-06 23:37 28.43715 -81.30271 99 ft 12 kts 51°
2026-05-06 23:37 28.43768 -81.30195 100 ft 12 kts 52°
2026-05-06 23:37 28.43818 -81.30120 99 ft 12 kts 58°
2026-05-06 23:37 28.43825 -81.30029 101 ft 12 kts 99°
2026-05-06 23:38 28.43833 -81.29964 101 ft 8 kts 41°
2026-05-06 23:38 28.43848 -81.29898 103 ft 13 kts 116°
2026-05-06 23:38 28.43779 -81.29834 102 ft 13 kts 153°
2026-05-06 23:38 28.43693 -81.29808 103 ft 13 kts 178°
2026-05-06 23:39 28.43613 -81.29806 103 ft 9 kts 178°
2026-05-06 23:39 28.43555 -81.29796 103 ft 8 kts 137°
2026-05-06 23:39 28.43551 -81.29733 102 ft 8 kts 89°
2026-05-06 23:39 28.43551 -81.29671 102 ft 8 kts 90°
2026-05-06 23:40 28.43551 -81.29611 103 ft 7 kts 90°
2026-05-06 23:40 28.43543 -81.29586 103 ft 1 kts 167°
2026-05-06 23:40 28.43539 -81.29586 104 ft 0 kts 178°
2026-05-06 23:41 28.43537 -81.29586 103 ft 3 kts 178°
2026-05-06 23:41 28.43378 -81.29582 107 ft 65 kts 179°
2026-05-06 23:41 28.42593 -81.29577 109 ft 156 kts 179°
2026-05-06 23:42 28.41459 -81.29569 1052 ft 162 kts 178°
2026-05-06 23:42 28.40343 -81.29528 2248 ft 161 kts 177°
2026-05-06 23:42 28.39207 -81.29480 3004 ft 167 kts 175°
2026-05-06 23:42 28.38072 -81.29101 3539 ft 179 kts 158°
2026-05-06 23:43 28.36931 -81.28390 3840 ft 201 kts 148°
2026-05-06 23:43 28.35702 -81.27477 4098 ft 219 kts 149°
2026-05-06 23:43 28.34382 -81.26434 4352 ft 239 kts 142°
2026-05-06 23:43 28.33114 -81.25122 4616 ft 262 kts 138°
2026-05-06 23:44 28.31786 -81.23619 5126 ft 273 kts 135°
2026-05-06 23:44 28.30459 -81.22022 5919 ft 276 kts 133°
2026-05-06 23:44 28.29193 -81.20399 6671 ft 280 kts 130°
2026-05-06 23:44 28.28096 -81.18565 7402 ft 284 kts 113°
2026-05-06 23:45 28.27625 -81.16396 8172 ft 286 kts 92°
2026-05-06 23:45 28.27641 -81.14136 8986 ft 288 kts 87°
2026-05-06 23:45 28.27710 -81.11850 9798 ft 292 kts 88°
2026-05-06 23:45 28.27752 -81.09521 10419 ft 303 kts 87°
2026-05-06 23:46 28.27812 -81.07029 10594 ft 329 kts 87°
2026-05-06 23:46 28.27862 -81.04344 10780 ft 351 kts 87°
2026-05-06 23:46 28.27895 -81.01536 11247 ft 361 kts 87°
2026-05-06 23:46 28.27915 -80.98672 11882 ft 366 kts 88°
2026-05-06 23:47 28.27927 -80.95774 12572 ft 369 kts 88°
2026-05-06 23:47 28.27936 -80.92845 13279 ft 373 kts 88°
2026-05-06 23:47 28.27944 -80.89884 13951 ft 377 kts 88°
2026-05-06 23:47 28.27820 -80.86891 14558 ft 384 kts 96°
2026-05-06 23:48 28.27214 -80.83912 15154 ft 392 kts 107°
2026-05-06 23:48 28.26197 -80.81015 15743 ft 398 kts 112°
2026-05-06 23:48 28.25098 -80.78115 16362 ft 402 kts 112°
2026-05-06 23:48 28.24018 -80.75215 16962 ft 407 kts 112°
2026-05-06 23:49 28.22934 -80.72235 17560 ft 412 kts 111°
2026-05-06 23:49 28.21621 -80.69328 18080 ft 418 kts 127°
2026-05-06 23:49 28.19512 -80.67063 18612 ft 420 kts 147°
2026-05-06 23:49 28.16892 -80.65632 19103 ft 420 kts 164°
2026-05-06 23:50 28.14089 -80.64641 19584 ft 425 kts 163°
2026-05-06 23:50 28.08900 -80.61249 20516 ft 440 kts 141°
2026-05-06 23:50 28.06713 -80.58788 20975 ft 446 kts 133°
2026-05-06 23:51 28.04629 -80.56132 21422 ft 451 kts 132°
2026-05-06 23:51 28.02561 -80.53441 21865 ft 456 kts 131°
2026-05-06 23:51 28.00505 -80.50760 22395 ft 456 kts 131°
2026-05-06 23:51 27.98412 -80.48039 22806 ft 461 kts 131°
2026-05-06 23:52 27.96274 -80.45274 23064 ft 462 kts 132°
2026-05-06 23:52 27.94166 -80.42563 23074 ft 468 kts 132°
2026-05-06 23:52 27.92011 -80.39808 23073 ft 465 kts 132°
2026-05-06 23:52 27.89871 -80.37083 23083 ft 462 kts 132°
2026-05-06 23:53 27.87739 -80.34375 23089 ft 461 kts 132°
2026-05-06 23:53 27.85608 -80.31673 23087 ft 460 kts 132°
2026-05-06 23:53 27.83477 -80.28975 23088 ft 460 kts 132°
2026-05-06 23:53 27.81345 -80.26275 23091 ft 461 kts 132°
2026-05-06 23:54 27.79206 -80.23569 23091 ft 462 kts 132°
2026-05-06 23:54 27.77059 -80.20854 23090 ft 465 kts 132°
2026-05-06 23:54 27.74879 -80.18098 23099 ft 476 kts 132°
2026-05-06 23:54 27.72653 -80.15287 23096 ft 485 kts 132°
2026-05-06 23:55 27.70386 -80.12426 23084 ft 493 kts 132°
2026-05-06 23:55 27.68086 -80.09523 23083 ft 498 kts 132°
2026-05-06 23:55 27.65783 -80.06619 23056 ft 495 kts 132°
2026-05-06 23:55 27.63490 -80.03728 23074 ft 493 kts 132°
2026-05-06 23:56 27.61204 -80.00848 23061 ft 492 kts 132°
2026-05-06 23:56 27.58921 -79.97975 23063 ft 492 kts 132°
2026-05-06 23:56 27.56634 -79.95099 23080 ft 492 kts 132°
2026-05-06 23:56 27.54346 -79.92224 23076 ft 493 kts 132°
2026-05-06 23:57 27.52058 -79.89350 23071 ft 494 kts 132°
2026-05-06 23:57 27.49761 -79.86468 23076 ft 494 kts 132°
2026-05-06 23:57 27.47464 -79.83587 23076 ft 495 kts 132°
2026-05-06 23:57 27.45157 -79.80696 23074 ft 495 kts 132°
2026-05-06 23:58 27.42854 -79.77812 23079 ft 496 kts 132°
2026-05-06 23:58 27.40558 -79.74939 23068 ft 496 kts 132°
2026-05-06 23:58 27.38246 -79.72047 23082 ft 495 kts 132°
2026-05-06 23:58 27.35940 -79.69165 23081 ft 495 kts 132°
2026-05-06 23:59 27.33636 -79.66287 23077 ft 495 kts 132°
2026-05-06 23:59 27.31334 -79.63414 23079 ft 495 kts 132°
2026-05-06 23:59 27.29030 -79.60539 23076 ft 494 kts 132°
2026-05-06 23:59 27.26728 -79.57670 23076 ft 494 kts 132°
2026-05-07 00:00 27.24422 -79.54798 23080 ft 494 kts 132°
2026-05-07 00:00 27.22120 -79.51931 23082 ft 494 kts 132°
2026-05-07 00:00 27.19817 -79.49066 23084 ft 494 kts 132°
2026-05-07 00:00 27.18289 -79.47167 23083 ft 494 kts 132°
2026-05-07 00:01 27.15204 -79.43333 23083 ft 495 kts 132°
2026-05-07 00:01 27.12900 -79.40473 23086 ft 494 kts 132°
2026-05-07 00:01 27.10591 -79.37608 23080 ft 494 kts 132°
2026-05-07 00:01 27.08317 -79.34788 23077 ft 494 kts 132°
2026-05-07 00:02 27.06010 -79.31929 23073 ft 494 kts 131°
2026-05-07 00:02 27.03707 -79.29078 23075 ft 493 kts 131°
2026-05-07 00:02 27.01405 -79.26228 23080 ft 493 kts 131°
2026-05-07 00:02 26.99103 -79.23382 23082 ft 492 kts 131°
2026-05-07 00:03 26.96807 -79.20544 23079 ft 492 kts 131°
2026-05-07 00:03 26.94504 -79.17699 23082 ft 492 kts 131°
2026-05-07 00:03 26.92204 -79.14861 23082 ft 492 kts 131°
2026-05-07 00:03 26.89905 -79.12026 23083 ft 492 kts 131°
2026-05-07 00:04 26.87601 -79.09185 23088 ft 492 kts 131°
2026-05-07 00:04 26.85299 -79.06350 23084 ft 493 kts 131°
2026-05-07 00:04 26.82993 -79.03511 23088 ft 492 kts 131°
2026-05-07 00:04 26.80689 -79.00676 23083 ft 492 kts 131°
2026-05-07 00:05 26.78382 -78.97840 23080 ft 492 kts 131°
2026-05-07 00:05 26.76080 -78.95012 23083 ft 492 kts 131°
2026-05-07 00:05 26.73774 -78.92179 23085 ft 492 kts 131°
2026-05-07 00:05 26.71471 -78.89354 23081 ft 492 kts 131°
2026-05-07 00:06 26.69167 -78.86528 23078 ft 491 kts 131°
2026-05-07 00:06 26.66864 -78.83705 23080 ft 491 kts 131°
2026-05-07 00:06 26.64561 -78.80885 23079 ft 491 kts 131°
2026-05-07 00:06 26.62259 -78.78066 23079 ft 491 kts 131°
2026-05-07 00:07 26.59954 -78.75246 23082 ft 491 kts 131°
2026-05-07 00:07 26.57647 -78.72425 23093 ft 491 kts 131°
2026-05-07 00:07 26.55349 -78.69603 23092 ft 491 kts 130°
2026-05-07 00:07 26.53162 -78.66668 23097 ft 491 kts 127°
2026-05-07 00:08 26.51071 -78.63658 23093 ft 490 kts 126°
2026-05-07 00:08 26.49007 -78.60635 23091 ft 490 kts 126°
2026-05-07 00:08 26.46919 -78.57625 23090 ft 490 kts 127°
2026-05-07 00:08 26.44812 -78.54636 23089 ft 490 kts 127°
2026-05-07 00:09 26.42691 -78.51657 23087 ft 490 kts 127°
2026-05-07 00:09 26.40569 -78.48685 23086 ft 490 kts 127°
2026-05-07 00:09 26.38447 -78.45717 23081 ft 489 kts 127°
2026-05-07 00:09 26.36355 -78.42788 23082 ft 489 kts 127°
2026-05-07 00:10 26.34238 -78.39822 23079 ft 489 kts 127°
2026-05-07 00:10 26.32120 -78.36855 23078 ft 489 kts 127°
2026-05-07 00:10 26.30006 -78.33894 23079 ft 489 kts 127°
2026-05-07 00:10 26.27887 -78.30929 23079 ft 489 kts 127°
2026-05-07 00:11 26.25769 -78.27966 23082 ft 489 kts 127°
2026-05-07 00:11 26.24340 -78.25968 23082 ft 489 kts 127°
2026-05-07 00:11 26.22221 -78.23009 23081 ft 489 kts 127°
2026-05-07 00:11 26.20099 -78.20047 23065 ft 489 kts 127°
2026-05-07 00:12 26.17978 -78.17090 22810 ft 488 kts 127°
2026-05-07 00:12 26.15870 -78.14151 22546 ft 484 kts 127°
2026-05-07 00:12 26.13774 -78.11230 22294 ft 482 kts 127°
2026-05-07 00:12 26.11691 -78.08329 22045 ft 477 kts 127°
2026-05-07 00:13 26.09677 -78.05526 21792 ft 463 kts 127°
2026-05-07 00:13 26.07684 -78.02754 21306 ft 456 kts 127°
2026-05-07 00:13 26.05711 -78.00010 20719 ft 451 kts 127°
2026-05-07 00:13 26.03761 -77.97299 20141 ft 447 kts 127°
2026-05-07 00:14 26.01831 -77.94617 19541 ft 443 kts 127°
2026-05-07 00:14 25.99904 -77.91940 18868 ft 442 kts 127°
2026-05-07 00:14 25.97989 -77.89281 18223 ft 440 kts 127°
2026-05-07 00:14 25.96084 -77.86639 17547 ft 436 kts 126°
2026-05-07 00:15 25.94199 -77.84027 16929 ft 431 kts 126°
2026-05-07 00:15 25.92230 -77.81556 16559 ft 422 kts 135°
2026-05-07 00:15 25.89925 -77.79625 16206 ft 409 kts 146°
2026-05-07 00:15 25.87436 -77.78128 15396 ft 406 kts 154°
2026-05-07 00:16 25.84780 -77.77076 14549 ft 405 kts 160°
2026-05-07 00:16 25.82111 -77.76142 13784 ft 400 kts 160°
2026-05-07 00:16 25.79478 -77.75212 12979 ft 394 kts 160°
2026-05-07 00:16 25.76925 -77.74303 12718 ft 374 kts 160°
2026-05-07 00:17 25.74518 -77.73441 12584 ft 353 kts 159°
2026-05-07 00:17 25.72242 -77.72623 12468 ft 335 kts 159°
2026-05-07 00:17 25.70075 -77.71841 12263 ft 321 kts 159°
2026-05-07 00:17 25.67967 -77.71078 11814 ft 318 kts 160°
2026-05-07 00:18 25.65863 -77.70315 11361 ft 319 kts 160°
2026-05-07 00:18 25.63754 -77.69555 11016 ft 319 kts 161°
2026-05-07 00:18 25.61590 -77.69016 10671 ft 319 kts 169°
2026-05-07 00:18 25.59427 -77.68654 10320 ft 312 kts 171°
2026-05-07 00:19 25.57324 -77.68336 9983 ft 307 kts 171°
2026-05-07 00:19 25.55184 -77.68007 9536 ft 306 kts 171°
2026-05-07 00:19 25.53121 -77.67678 9113 ft 302 kts 171°
2026-05-07 00:19 25.51057 -77.67339 8681 ft 298 kts 171°
2026-05-07 00:20 25.49681 -77.67108 8365 ft 295 kts 171°
2026-05-07 00:20 25.48929 -77.66980 8179 ft 294 kts 172°